IRIDIUM 47 DEB

Satellite information

Favourite Embed

Satellite Type and Status

DEBRISIN ORBIT

Key statistics

Satellite IRIDIUM 47 DEB at a glance.

Uptime

10059

Days in orbit

Revolutions

≈ 14.4

Per day

Orbit

LEO

Low Earth Orbit

Inclination

86.4

Latest

Satellite identification and parameters

Extended collection of information and parameters for IRIDIUM 47 DEB.

Object identification

Identified? True

Debris? True

Object name: IRIDIUM 47 DEB

International designator: 1997-082J

Object number (NORAD): 40249

Object ID (CCSDS): 40249

Country: UNITED STATES OF AMERICA (US)

Current information (Y/N): Y

RCS size: SMALL

Orbital parameters

Period: 99.895 minutes

Inclination: 86.3899 deg

SMA: 7131.62 km

Apoapsis: 755.242 km

Periapsis: 751.728 km

RAAN: 99.0386 deg

Eccentricy: 0.0002464

Argument of periapsis: 88.0477 deg

Mean anomaly: 272.1004 deg

Mean motion: 14.41519374 rev/day

Mean motion (dot): 0.00000928 rev/day2

B* drag term: 0.00027965 1/REarth

Two-line elements (TLE)

Creation date: July 4, 2025, 10:46 p.m.

Reference frame: TEME

Reference center: EARTH

Epoch: July 4, 2025, 6:12 p.m. UTC

TLE line 0: 0 IRIDIUM 47 DEB

TLE line 1: 1 40249U 97082J 25185.75902466 .00000928 00000-0 27965-3 0 9996

TLE line 2: 2 40249 86.3899 99.0386 0002464 88.0477 272.1004 14.41519374579410

Live tracking on map

Real-time ground track for satellite IRIDIUM 47 DEB.

In-orbit conjunctions

A list of the most updated potential collisions computed for object IRIDIUM 47 DEB.

Target Orbit TCA Probability of collision Miss distance Type
COSMOS 1937 LEO 2024-09-27 18:14:45 0.004421844 66.0 (m) PAYLOAD

Associated space launch

Iridium provides global mobile telecommunications services using a constellation of 66 low earth orbit satellites in a 86.4° inclined orbit. Although 77 satellites were originally envisioned for the system and spawned the name based on the 77th element in the periodic table, the system has been scaled back. Motorola's Satellite Communications Group designed and manufactured the Iridium satellites with Lockheed Martin providing the LM-700A spacecraft buses.

IRIDIUM 47 DEB was lifted into orbit during the mission ‘Delta II | Iridium 45 to 49’, on board a Delta II space rocket.

The launch took place on Dec. 20, 1997, 1:16 p.m. from Space Launch Complex 2W.

For more information about the launch, click the button.

Launch to space Delta II | Iridium 45 to 49
Delta II | Iridium 45 to 49

Agency: N/A

Status: Launch Successful

Launch date: Dec. 20, 1997, 1:16 p.m. UTC

Rocket: Delta II

Launch pad: Space Launch Complex 2W

Location: Vandenberg SFB, CA, USA

...

Latest news about this satellite

There are no fresh news available about this satellite. Check back as we update our databases every day.


Newsletter sign-up

Weekly statistics, charts and insights to help you stay on top of the space industry.